Résultats de la compétition " Clairmarais" du 09-03-2008 organisée par le club 6208
     
  Télécharger le fichier CSV.  
     
     

 Circuit ""

Licence Nom Prénom Temps CN
précédent
Score sur
la course
Différence
15894LUDEWIG-JAMESCarol0:53:5421440-2144

  Circuit non comptabilisé (moins de 3 coureurs classés).




 Circuit "Circuit A"

Licence Nom Prénom Temps CN
précédent
Score sur
la course
Différence
12967LEPOUTREBenjamin0:31:1875306231-1299
7049LEROYSimon0:32:4269205964-956
722FLICOTEAUXRaphael0:35:2556385507-131
9629SMIRNOVKonstantin0:35:4160745466-608
17576JOLYPhilippe0:36:3354485336-112
14909JOLYFrancois0:37:1660135233-780
17574LEQUINTRémi0:37:4951545157+3
1947POULAINJoel0:37:5454305146-284
14372DUBOISRemi0:38:3261985061-1137
9630SMIRNOVSerguei0:38:5361795016-1163
6999MAHIEUPierre0:39:3961594919-1240
4808DASILVAFernando0:40:3248404812-28
5421LOTERIEJ-Francois0:40:3855674800-767
12468RADONDYDaniel0:40:4455134788-725
17686MAERTELAEREHugues0:41:4645754670+95
16399GENCEEric0:43:2038044501+697
16397CLAIRETRichard0:43:2342754496+221
12744PRECLINStephane0:45:0936154320+705
18651DROGOULMatthieu0:45:29N/A4288N/A
7215LEROYJacques0:47:5042094077-132
19699GOBERTAlain0:49:00N/A3980N/A
13838BOUTINDominique0:49:5333603910+550
5160QUENEC'HDUJ-Luc0:51:1240653809-256
19387FARDELFlorent0:54:30N/A3579N/A
14228BISQUERTChristophe0:55:3432023510+308
18803BECARTBernard0:56:5318293429+1600
16230BATELIQuentin0:57:5235083370-138
18783DECROOYannick1:01:51N/A3153N/A
18662NEUVILLEChristian1:02:0838903139-751
18789BAERTEtienne1:06:4726482920+272
17979DOUGUETDavid1:19:5528292440-389
16961PARMENTFabien1:21:2331062396-710
19423BRUNOTYoannN/AN/A0N/A

  Indice de confiance du circuit (moyenne des différences entre CN et score sur la course des 3 à 10 premiers) : 229




 Circuit "Circuit B"

Licence Nom Prénom Temps CN
précédent
Score sur
la course
Différence
11434SAUVAGEElsa0:42:51N/A4162N/A
14665SZYMANOWSKIValentin0:43:5845824056-526
8445FINASCeline0:45:3842993908-391
14227DESRUMAUXMarie0:47:0443963789-607
9165BAILLEULJ-Paul0:47:1739843771-213
16398GRIMBERTHerve0:48:4432553659+404
13270ROUXCatherine0:48:5935343641+107
5597EJSMONTJean0:49:3344293599-830
16145HORVATHAnne0:53:0633093358+49
9164TORZDidier0:57:2336063108-498
10083TORZLola0:59:0040723023-1049
7216LEROYOdile1:04:2136132771-842
19338ROCQUETAlice1:12:46N/A2451N/A
19155GOURLAINMarguerite-marie1:14:00N/A2410N/A
10084TORZAgathe1:14:2632882396-892
19336BECOURTAudrey1:20:03N/A2228N/A
19987FELIXZoé Audrey1:22:45N/A2155N/A
10540DEIANAPierreN/A30880-3088

  Indice de confiance du circuit (moyenne des différences entre CN et score sur la course des 3 à 10 premiers) : 373




 Circuit "Circuit C"

Licence Nom Prénom Temps CN
précédent
Score sur
la course
Différence
9171POULAINYannick0:42:1738693468-401
17577FACHAUXAngélique0:45:3834343213-221
19411DUBOISXavier0:45:53N/A3196N/A
19240MAZYFrançois-rémi0:47:0729633112+149
9631SMIRNOVAlexandra0:47:1740573101-956
17573LOVATOFlorian0:51:3035102847-663
16205HUMBERTCLAUDEJ-Paul0:57:1530792561-518
13429MILLEVILLEHerve0:59:3629392460-479
15247SANCHEZMarlene1:03:52N/A2296N/A
10081TORZ-DRUONMagali1:16:4928331909-924
19880REYDANTClarisse1:18:03N/A1879N/A
13272CZERNIAKSidonieN/A27150-2715
19136TANTARTDelphineN/A23960-2396

  Indice de confiance du circuit (moyenne des différences entre CN et score sur la course des 3 à 10 premiers) : 782




 Circuit "Circuit D"

Licence Nom Prénom Temps CN
précédent
Score sur
la course
Différence
20029GOBERTAlexandre0:45:30N/A2246N/A
18299GOURLAINMathilde1:01:13N/A1670N/A
9172POULAINGael1:01:3919241658-266
19759GOURLAINClément1:05:06N/A1570N/A
19881REYDANTMarie-alaïs1:13:19N/A1394N/A
12966DASILVAStephanie1:14:44N/A1368N/A
19882REYDANTJuliette1:46:18N/A962N/A

  Indice de confiance du circuit (moyenne des différences entre CN et score sur la course des 3 à 10 premiers) : 301






 Retour